Time,TemperatureF,DewpointF,PressureIn,WindDirection,WindDirectionDegrees,WindSpeedMPH,WindSpeedGustMPH,Humidity,HourlyPrecipIn,Conditions,Clouds,dailyrainin,SoftwareType,DateUTC
2013-06-21 00:01:00,77.2,73.7,30.06,NE,45,0.0,0.0,89,0.00,BKN,,0.22,WeatherDisplay:10.37,2013-06-21 04:01:00,
2013-06-21 00:06:00,77.2,73.7,30.06,NE,45,0.0,1.4,89,0.00,RA,,0.00,WeatherDisplay:10.37,2013-06-21 04:06:00,
2013-06-21 00:11:00,77.2,73.7,30.06,NE,45,0.0,2.8,89,0.00,RA,,0.00,WeatherDisplay:10.37,2013-06-21 04:11:00,
2013-06-21 00:16:00,77.2,73.7,30.07,NE,45,4.1,4.1,89,0.00,RA,,0.00,WeatherDisplay:10.37,2013-06-21 04:16:00,
2013-06-21 00:22:00,77.2,73.7,30.07,North,0,0.0,0.0,89,0.00,RA,,0.00,WeatherDisplay:10.37,2013-06-21 04:22:00,
2013-06-21 00:27:00,77.2,73.7,30.07,NE,45,0.0,2.3,89,0.00,RA,,0.00,WeatherDisplay:10.37,2013-06-21 04:27:00,
2013-06-21 00:32:00,77.0,73.5,30.07,NE,45,0.3,2.8,89,0.00,SCT,,0.00,WeatherDisplay:10.37,2013-06-21 04:32:00,
2013-06-21 00:37:00,76.8,73.0,30.06,North,0,0.0,2.3,88,0.00,SCT,,0.00,WeatherDisplay:10.37,2013-06-21 04:37:00,
2013-06-21 00:42:00,76.6,72.8,30.06,North,0,0.0,0.0,88,0.00,SCT,,0.00,WeatherDisplay:10.37,2013-06-21 04:42:00,
2013-06-21 00:47:00,76.6,72.8,30.07,North,0,0.2,0.0,88,0.00,SCT,,0.00,WeatherDisplay:10.37,2013-06-21 04:47:00,
2013-06-21 00:52:00,76.6,72.8,30.07,NE,45,2.0,2.8,88,0.00,SCT,,0.00,WeatherDisplay:10.37,2013-06-21 04:52:00,
2013-06-21 00:57:00,76.6,72.8,30.07,NE,45,1.6,2.3,88,0.00,SCT,,0.00,WeatherDisplay:10.37,2013-06-21 04:57:00,
2013-06-21 01:02:00,76.6,72.5,30.06,NE,45,0.1,2.3,87,0.00,SCT,,0.00,WeatherDisplay:10.37,2013-06-21 05:02:00,
2013-06-21 01:07:00,76.6,72.5,30.07,NE,45,0.0,0.0,87,0.00,SCT,,0.00,WeatherDisplay:10.37,2013-06-21 05:07:00,
2013-06-21 01:12:00,76.6,72.5,30.06,NE,45,0.1,1.4,87,0.00,SCT,,0.00,WeatherDisplay:10.37,2013-06-21 05:12:00,
2013-06-21 01:17:00,76.6,72.5,30.06,North,0,0.0,0.0,87,0.00,BKN,,0.00,WeatherDisplay:10.37,2013-06-21 05:17:00,
2013-06-21 01:22:00,76.6,72.5,30.06,NE,45,3.0,3.0,87,0.00,BKN,,0.00,WeatherDisplay:10.37,2013-06-21 05:22:00,
2013-06-21 01:27:00,76.6,72.5,30.06,NE,45,0.0,4.6,87,0.00,BKN,,0.00,WeatherDisplay:10.37,2013-06-21 05:27:00,
2013-06-21 01:32:00,76.6,72.5,30.06,NE,45,0.0,0.0,87,0.00,BKN,,0.00,WeatherDisplay:10.37,2013-06-21 05:32:00,
2013-06-21 01:37:00,76.8,72.7,30.06,NE,45,0.5,5.8,87,0.00,BKN,,0.00,WeatherDisplay:10.37,2013-06-21 05:37:00,
2013-06-21 01:43:00,76.8,72.7,30.06,NE,45,3.9,3.9,87,0.00,BKN,,0.00,WeatherDisplay:10.37,2013-06-21 05:43:00,
2013-06-21 01:48:00,76.8,72.7,30.06,North,0,6.0,6.0,87,0.00,BKN,,0.00,WeatherDisplay:10.37,2013-06-21 05:48:00,
2013-06-21 01:53:00,76.6,72.5,30.06,NE,45,3.6,0.0,87,0.00,BKN,,0.00,WeatherDisplay:10.37,2013-06-21 05:53:00,
2013-06-21 01:58:00,76.6,72.5,30.05,NE,45,0.0,0.0,87,0.00,BKN,,0.00,WeatherDisplay:10.37,2013-06-21 05:58:00,
2013-06-21 02:03:00,76.6,72.5,30.05,NE,45,0.0,0.0,87,0.00,BKN,,0.00,WeatherDisplay:10.37,2013-06-21 06:03:00,
2013-06-21 02:08:00,76.5,72.6,30.05,NE,45,0.0,0.0,88,0.00,BKN,,0.00,WeatherDisplay:10.37,2013-06-21 06:08:00,
2013-06-21 02:13:00,76.3,72.5,30.05,NE,45,0.0,0.0,88,0.00,BKN,,0.00,WeatherDisplay:10.37,2013-06-21 06:13:00,
2013-06-21 02:18:00,76.3,72.5,30.05,NE,45,0.0,0.0,88,0.00,BKN,,0.00,WeatherDisplay:10.37,2013-06-21 06:18:00,
2013-06-21 02:23:00,76.3,72.8,30.05,NE,45,0.0,0.0,89,0.00,BKN,,0.00,WeatherDisplay:10.37,2013-06-21 06:23:00,
2013-06-21 02:28:00,76.1,72.6,30.05,NE,45,0.0,0.0,89,0.00,BKN,,0.00,WeatherDisplay:10.37,2013-06-21 06:28:00,
2013-06-21 02:33:00,75.9,72.4,30.04,NE,45,0.0,0.0,89,0.00,BKN,,0.00,WeatherDisplay:10.37,2013-06-21 06:33:00,
2013-06-21 02:38:00,75.7,72.6,30.04,NE,45,0.0,0.0,90,0.00,BKN,,0.00,WeatherDisplay:10.37,2013-06-21 06:38:00,
2013-06-21 02:43:00,75.4,71.9,30.04,NE,45,0.0,0.0,89,0.00,BKN,,0.00,WeatherDisplay:10.37,2013-06-21 06:43:00,
2013-06-21 02:48:00,75.0,71.9,30.03,NE,45,0.0,0.0,90,0.00,BKN,,0.00,WeatherDisplay:10.37,2013-06-21 06:48:00,
2013-06-21 02:53:00,74.8,71.7,30.03,NE,45,0.0,0.0,90,0.00,BKN,,0.00,WeatherDisplay:10.37,2013-06-21 06:53:00,
2013-06-21 02:58:00,74.8,72.0,30.04,NE,45,0.0,0.0,91,0.00,BKN,,0.00,WeatherDisplay:10.37,2013-06-21 06:58:00,
2013-06-21 03:03:00,74.5,71.7,30.03,NE,45,0.0,0.0,91,0.00,BKN,,0.00,WeatherDisplay:10.37,2013-06-21 07:03:00,
2013-06-21 03:09:00,74.5,71.7,30.03,NE,45,0.0,0.0,91,0.00,BKN,,0.00,WeatherDisplay:10.37,2013-06-21 07:09:00,
2013-06-21 03:14:00,74.3,71.8,30.03,NE,45,0.0,0.0,92,0.00,BKN,,0.00,WeatherDisplay:10.37,2013-06-21 07:14:00,
2013-06-21 03:19:00,74.1,71.6,30.03,NE,45,0.0,0.0,92,0.00,BKN,,0.00,WeatherDisplay:10.37,2013-06-21 07:19:00,
2013-06-21 03:24:00,74.1,71.6,30.03,NE,45,0.0,0.0,92,0.00,BKN,,0.00,WeatherDisplay:10.37,2013-06-21 07:24:00,
2013-06-21 03:29:00,73.9,71.8,30.03,NE,45,0.0,0.0,93,0.00,BKN,,0.00,WeatherDisplay:10.37,2013-06-21 07:29:00,
2013-06-21 03:34:00,73.8,71.6,30.03,NE,45,0.0,0.0,93,0.00,BKN,,0.00,WeatherDisplay:10.37,2013-06-21 07:34:00,
2013-06-21 03:39:00,73.8,71.6,30.03,NE,45,0.0,0.0,93,0.00,BKN,,0.00,WeatherDisplay:10.37,2013-06-21 07:39:00,
2013-06-21 03:44:00,73.6,71.4,30.02,NE,45,0.0,0.0,93,0.00,BKN,,0.00,WeatherDisplay:10.37,2013-06-21 07:44:00,
2013-06-21 03:49:00,73.6,71.7,30.02,NE,45,0.0,0.0,94,0.00,BKN,,0.00,WeatherDisplay:10.37,2013-06-21 07:49:00,
2013-06-21 03:54:00,73.6,71.7,30.02,NE,45,0.0,0.0,94,0.00,BKN,,0.00,WeatherDisplay:10.37,2013-06-21 07:54:00,
2013-06-21 03:59:00,73.6,71.7,30.02,NE,45,0.0,0.0,94,0.00,BKN,,0.00,WeatherDisplay:10.37,2013-06-21 07:59:00,
2013-06-21 04:04:00,73.2,71.4,30.02,NE,45,0.0,0.0,94,0.00,BKN,,0.00,WeatherDisplay:10.37,2013-06-21 08:04:00,
2013-06-21 04:09:00,73.2,71.4,30.02,NE,45,0.0,0.0,94,0.00,BKN,,0.00,WeatherDisplay:10.37,2013-06-21 08:09:00,
2013-06-21 04:14:00,73.2,71.4,30.02,NE,45,0.0,0.0,94,0.00,SCT,,0.00,WeatherDisplay:10.37,2013-06-21 08:14:00,
2013-06-21 04:19:00,73.2,71.4,30.02,NE,45,0.0,0.0,94,0.00,SCT,,0.00,WeatherDisplay:10.37,2013-06-21 08:19:00,
2013-06-21 04:24:00,73.4,71.6,30.02,NE,45,0.0,0.0,94,0.00,SCT,,0.00,WeatherDisplay:10.37,2013-06-21 08:24:00,
2013-06-21 04:29:00,73.6,71.7,30.02,NE,45,0.0,0.0,94,0.00,SCT,,0.00,WeatherDisplay:10.37,2013-06-21 08:29:00,
2013-06-21 04:35:00,73.6,72.1,30.02,NE,45,0.0,0.0,95,0.00,SCT,,0.00,WeatherDisplay:10.37,2013-06-21 08:35:00,
2013-06-21 04:40:00,73.4,71.9,30.02,NE,45,0.0,0.0,95,0.00,SCT,,0.00,WeatherDisplay:10.37,2013-06-21 08:40:00,
2013-06-21 04:45:00,73.2,71.4,30.02,NE,45,0.0,0.0,94,0.00,SCT,,0.00,WeatherDisplay:10.37,2013-06-21 08:45:00,
2013-06-21 04:50:00,73.2,71.4,30.02,NE,45,0.0,0.0,94,0.00,SCT,,0.00,WeatherDisplay:10.37,2013-06-21 08:50:00,
2013-06-21 04:55:00,73.4,71.9,30.02,NE,45,0.0,0.0,95,0.00,SCT,,0.00,WeatherDisplay:10.37,2013-06-21 08:55:00,
2013-06-21 05:00:00,73.2,71.7,30.02,NE,45,0.0,0.0,95,0.00,SCT,,0.00,WeatherDisplay:10.37,2013-06-21 09:00:00,
2013-06-21 05:05:00,73.2,71.7,30.02,NE,45,0.0,0.0,95,0.00,SCT,,0.00,WeatherDisplay:10.37,2013-06-21 09:05:00,
2013-06-21 05:10:00,73.2,71.7,30.02,NE,45,0.0,0.0,95,0.00,SCT,,0.00,WeatherDisplay:10.37,2013-06-21 09:10:00,
2013-06-21 05:15:00,73.2,71.7,30.02,NE,45,0.0,0.0,95,0.00,SCT,,0.00,WeatherDisplay:10.37,2013-06-21 09:15:00,
2013-06-21 05:20:00,73.2,71.7,30.03,NE,45,0.0,0.0,95,0.00,SCT,,0.00,WeatherDisplay:10.37,2013-06-21 09:20:00,
2013-06-21 05:25:00,73.6,72.1,30.02,NE,45,0.0,0.0,95,0.00,SCT,,0.00,WeatherDisplay:10.37,2013-06-21 09:25:00,
2013-06-21 05:30:00,73.6,72.1,30.03,NE,45,0.0,0.0,95,0.00,SCT,,0.00,WeatherDisplay:10.37,2013-06-21 09:30:00,
2013-06-21 05:35:00,73.8,72.2,30.03,NE,45,0.0,0.0,95,0.00,SCT,,0.00,WeatherDisplay:10.37,2013-06-21 09:35:00,
2013-06-21 05:40:00,73.6,72.1,30.03,NE,45,0.0,0.0,95,0.00,SCT,,0.00,WeatherDisplay:10.37,2013-06-21 09:40:00,
2013-06-21 05:45:00,73.6,72.1,30.03,NE,45,0.0,0.0,95,0.00,SCT,,0.00,WeatherDisplay:10.37,2013-06-21 09:45:00,
2013-06-21 05:50:00,73.6,72.1,30.03,NE,45,0.0,0.0,95,0.00,SCT,,0.00,WeatherDisplay:10.37,2013-06-21 09:50:00,
2013-06-21 05:56:00,73.6,72.1,30.03,NE,45,0.0,0.0,95,0.00,SCT,,0.00,WeatherDisplay:10.37,2013-06-21 09:56:00,
2013-06-21 06:01:00,73.6,72.1,30.03,NE,45,0.0,0.0,95,0.00,SCT,,0.00,WeatherDisplay:10.37,2013-06-21 10:01:00,
2013-06-21 06:06:00,73.6,72.1,30.03,NE,45,0.0,0.0,95,0.00,SCT,,0.00,WeatherDisplay:10.37,2013-06-21 10:06:00,
2013-06-21 06:11:00,73.6,72.1,30.04,NE,45,0.0,0.0,95,0.00,SCT,,0.00,WeatherDisplay:10.37,2013-06-21 10:11:00,
2013-06-21 06:16:00,73.6,72.4,30.03,NE,45,0.0,0.0,96,0.00,SCT,,0.00,WeatherDisplay:10.37,2013-06-21 10:16:00,
2013-06-21 06:21:00,73.4,71.9,30.03,NE,45,0.0,0.0,95,0.00,SCT,,0.00,WeatherDisplay:10.37,2013-06-21 10:21:00,
2013-06-21 06:26:00,73.4,72.2,30.03,NE,45,0.0,0.0,96,0.00,SCT,,0.00,WeatherDisplay:10.37,2013-06-21 10:26:00,
2013-06-21 06:31:00,73.6,72.4,30.04,NE,45,0.0,0.0,96,0.00,SCT,,0.00,WeatherDisplay:10.37,2013-06-21 10:31:00,
2013-06-21 06:36:00,73.6,72.4,30.04,NE,45,0.0,0.0,96,0.00,SCT,,0.00,WeatherDisplay:10.37,2013-06-21 10:36:00,
2013-06-21 06:41:00,73.6,72.4,30.05,NE,45,0.0,0.0,96,0.00,BKN,,0.00,WeatherDisplay:10.37,2013-06-21 10:41:00,
2013-06-21 06:46:00,73.8,72.5,30.04,NE,45,0.0,0.0,96,0.00,BKN,,0.00,WeatherDisplay:10.37,2013-06-21 10:46:00,
2013-06-21 06:51:00,73.8,72.5,30.05,NE,45,0.0,0.0,96,0.00,BKN,,0.00,WeatherDisplay:10.37,2013-06-21 10:51:00,
2013-06-21 06:56:00,73.9,72.7,30.05,NE,45,0.0,0.0,96,0.00,BKN,,0.00,WeatherDisplay:10.37,2013-06-21 10:56:00,
2013-06-21 07:01:00,74.1,72.9,30.05,NE,45,0.0,0.0,96,0.00,BKN,,0.00,WeatherDisplay:10.37,2013-06-21 11:01:00,
2013-06-21 07:06:00,74.1,72.6,30.05,NE,45,0.0,0.0,95,0.00,BKN,,0.00,WeatherDisplay:10.37,2013-06-21 11:06:00,
2013-06-21 07:11:00,74.1,72.6,30.05,NE,45,0.0,0.0,95,0.00,BKN,,0.00,WeatherDisplay:10.37,2013-06-21 11:11:00,
2013-06-21 07:16:00,74.3,72.8,30.05,NE,45,0.0,0.0,95,0.00,BKN,,0.00,WeatherDisplay:10.37,2013-06-21 11:16:00,
2013-06-21 07:22:00,74.5,73.0,30.05,NE,45,0.0,0.0,95,0.00,BKN,,0.00,WeatherDisplay:10.37,2013-06-21 11:22:00,
2013-06-21 07:27:00,74.8,73.3,30.05,NE,45,0.0,0.0,95,0.00,BKN,,0.00,WeatherDisplay:10.37,2013-06-21 11:27:00,
2013-06-21 07:32:00,75.2,73.7,30.05,NE,45,0.0,0.0,95,0.00,BKN,,0.00,WeatherDisplay:10.37,2013-06-21 11:32:00,
2013-06-21 07:37:00,75.2,73.7,30.05,NE,45,0.0,0.0,95,0.00,BKN,,0.00,WeatherDisplay:10.37,2013-06-21 11:37:00,
2013-06-21 07:42:00,75.9,74.1,30.05,NE,45,0.0,0.0,94,0.00,BKN,,0.00,WeatherDisplay:10.37,2013-06-21 11:42:00,
2013-06-21 07:47:00,76.3,74.1,30.05,NE,45,0.0,0.0,93,0.00,BKN,,0.00,WeatherDisplay:10.37,2013-06-21 11:47:00,
2013-06-21 07:52:00,76.3,74.1,30.05,NE,45,0.0,0.0,93,0.00,BKN,,0.00,WeatherDisplay:10.37,2013-06-21 11:52:00,
2013-06-21 07:57:00,76.3,74.1,30.05,NE,45,0.0,0.0,93,0.00,BKN,,0.00,WeatherDisplay:10.37,2013-06-21 11:57:00,
2013-06-21 08:02:00,76.3,74.1,30.06,NE,45,0.0,0.0,93,0.00,BKN,,0.00,WeatherDisplay:10.37,2013-06-21 12:02:00,
2013-06-21 08:07:00,76.3,74.1,30.06,NE,45,0.0,0.0,93,0.00,BKN,,0.00,WeatherDisplay:10.37,2013-06-21 12:07:00,
2013-06-21 08:12:00,76.3,74.1,30.06,NE,45,0.0,0.0,93,0.00,BKN,,0.00,WeatherDisplay:10.37,2013-06-21 12:12:00,
2013-06-21 08:17:00,76.3,74.1,30.07,NE,45,0.0,0.0,93,0.00,BKN,,0.00,WeatherDisplay:10.37,2013-06-21 12:17:00,
2013-06-21 08:22:00,76.5,74.3,30.07,NE,45,0.0,0.0,93,0.00,BKN,,0.00,WeatherDisplay:10.37,2013-06-21 12:22:00,
2013-06-21 08:27:00,76.5,74.3,30.07,NE,45,0.0,0.0,93,0.00,BKN,,0.00,WeatherDisplay:10.37,2013-06-21 12:27:00,
2013-06-21 08:32:00,76.6,74.5,30.07,NE,45,0.0,0.0,93,0.00,BKN,,0.00,WeatherDisplay:10.37,2013-06-21 12:32:00,
2013-06-21 08:37:00,76.8,74.6,30.07,NE,45,0.0,0.0,93,0.00,BKN,,0.00,WeatherDisplay:10.37,2013-06-21 12:37:00,
2013-06-21 08:43:00,77.2,74.7,30.07,North,0,0.0,0.0,92,0.00,BKN,,0.00,WeatherDisplay:10.37,2013-06-21 12:43:00,
2013-06-21 08:48:00,77.4,74.9,30.07,North,0,0.3,2.8,92,0.00,BKN,,0.00,WeatherDisplay:10.37,2013-06-21 12:48:00,
2013-06-21 08:53:00,77.7,74.9,30.07,NE,45,0.0,0.0,91,0.00,BKN,,0.00,WeatherDisplay:10.37,2013-06-21 12:53:00,
2013-06-21 08:58:00,78.1,74.6,30.07,NE,45,0.2,2.8,89,0.00,BKN,,0.00,WeatherDisplay:10.37,2013-06-21 12:58:00,
2013-06-21 09:03:00,78.4,74.6,30.07,NE,45,3.4,3.4,88,0.00,SCT,,0.00,WeatherDisplay:10.37,2013-06-21 13:03:00,
2013-06-21 09:08:00,79.3,74.8,30.07,NE,45,0.0,0.0,86,0.00,SCT,,0.00,WeatherDisplay:10.37,2013-06-21 13:08:00,
2013-06-21 09:13:00,79.3,74.8,30.08,North,0,0.0,0.0,86,0.00,SCT,,0.00,WeatherDisplay:10.37,2013-06-21 13:13:00,
2013-06-21 09:18:00,79.7,74.8,30.07,East,90,4.0,4.0,85,0.00,SCT,,0.00,WeatherDisplay:10.37,2013-06-21 13:18:00,
2013-06-21 09:23:00,81.1,75.5,30.08,NE,45,0.0,2.3,83,0.00,SCT,,0.00,WeatherDisplay:10.37,2013-06-21 13:23:00,
2013-06-21 09:28:00,82.6,75.8,30.08,NE,45,0.0,2.8,80,0.00,SCT,,0.00,WeatherDisplay:10.37,2013-06-21 13:28:00,
2013-06-21 09:33:00,82.6,75.4,30.08,NE,45,2.0,2.8,79,0.00,SCT,,0.00,WeatherDisplay:10.37,2013-06-21 13:33:00,
2013-06-21 09:38:00,82.6,75.0,30.08,SE,135,0.2,4.6,78,0.00,SCT,,0.00,WeatherDisplay:10.37,2013-06-21 13:38:00,
2013-06-21 09:43:00,82.6,75.0,30.08,NE,45,0.1,4.6,78,0.00,SCT,,0.00,WeatherDisplay:10.37,2013-06-21 13:43:00,
2013-06-21 09:48:00,82.6,74.6,30.09,SE,135,0.0,2.3,77,0.00,SCT,,0.00,WeatherDisplay:10.37,2013-06-21 13:48:00,
2013-06-21 09:53:00,83.8,75.9,30.09,NE,45,3.8,5.8,77,0.00,SCT,,0.00,WeatherDisplay:10.37,2013-06-21 13:53:00,
2013-06-21 09:58:00,83.1,75.5,30.09,North,0,0.0,4.6,78,0.00,SCT,,0.00,WeatherDisplay:10.37,2013-06-21 13:58:00,
2013-06-21 10:03:00,83.1,75.2,30.09,North,0,0.1,2.8,77,0.00,BKN,,0.00,WeatherDisplay:10.37,2013-06-21 14:03:00,
2013-06-21 10:09:00,83.8,75.5,30.09,NE,45,0.0,2.3,76,0.00,BKN,,0.00,WeatherDisplay:10.37,2013-06-21 14:09:00,
2013-06-21 10:14:00,84.7,75.5,30.09,NE,45,0.0,2.8,74,0.00,BKN,,0.00,WeatherDisplay:10.37,2013-06-21 14:14:00,
2013-06-21 10:19:00,84.7,75.5,30.09,NE,45,0.0,0.0,74,0.00,BKN,,0.00,WeatherDisplay:10.37,2013-06-21 14:19:00,
2013-06-21 10:24:00,84.6,75.8,30.09,NE,45,0.0,0.0,75,0.00,BKN,,0.00,WeatherDisplay:10.37,2013-06-21 14:24:00,
2013-06-21 10:29:00,85.3,75.2,30.09,NE,45,4.2,4.2,72,0.00,BKN,,0.00,WeatherDisplay:10.37,2013-06-21 14:29:00,
2013-06-21 10:34:00,85.5,75.0,30.09,NE,45,3.3,3.3,71,0.00,BKN,,0.00,WeatherDisplay:10.37,2013-06-21 14:34:00,
2013-06-21 10:39:00,84.7,75.1,30.09,NE,45,0.0,4.6,73,0.00,BKN,,0.00,WeatherDisplay:10.37,2013-06-21 14:39:00,
2013-06-21 10:44:00,84.9,74.9,30.09,NW,315,0.0,1.4,72,0.00,BKN,,0.00,WeatherDisplay:10.37,2013-06-21 14:44:00,
2013-06-21 10:49:00,86.5,76.0,30.09,NE,45,0.1,2.3,71,0.00,BKN,,0.00,WeatherDisplay:10.37,2013-06-21 14:49:00,
2013-06-21 10:54:00,88.3,76.0,30.09,East,90,0.2,2.8,67,0.00,BKN,,0.00,WeatherDisplay:10.37,2013-06-21 14:54:00,
2013-06-21 10:59:00,88.9,75.6,30.09,NW,315,0.0,4.6,65,0.00,BKN,,0.00,WeatherDisplay:10.37,2013-06-21 14:59:00,
2013-06-21 11:04:00,88.0,76.1,30.09,NE,45,1.7,2.3,68,0.00,BKN,,0.00,WeatherDisplay:10.37,2013-06-21 15:04:00,
2013-06-21 11:09:00,88.2,75.8,30.09,NE,45,0.0,2.3,67,0.00,BKN,,0.00,WeatherDisplay:10.37,2013-06-21 15:09:00,
2013-06-21 11:14:00,89.2,76.4,30.09,NW,315,0.0,0.0,66,0.00,BKN,,0.00,WeatherDisplay:10.37,2013-06-21 15:14:00,
2013-06-21 11:19:00,90.5,75.2,30.09,North,0,3.2,5.8,61,0.00,BKN,,0.00,WeatherDisplay:10.37,2013-06-21 15:19:00,
2013-06-21 11:24:00,88.2,75.4,30.09,NE,45,0.0,2.3,66,0.00,BKN,,0.00,WeatherDisplay:10.37,2013-06-21 15:24:00,
2013-06-21 11:30:00,88.2,74.4,30.09,North,0,0.0,1.2,64,0.00,BKN,,0.00,WeatherDisplay:10.37,2013-06-21 15:30:00,
2013-06-21 11:35:00,90.0,76.1,30.09,NE,45,0.3,2.8,64,0.00,BKN,,0.00,WeatherDisplay:10.37,2013-06-21 15:35:00,
2013-06-21 11:40:00,90.7,75.9,30.09,NW,315,4.2,4.6,62,0.00,BKN,,0.00,WeatherDisplay:10.37,2013-06-21 15:40:00,
2013-06-21 11:45:00,90.7,75.9,30.09,NE,45,1.7,4.6,62,0.00,BKN,,0.00,WeatherDisplay:10.37,2013-06-21 15:45:00,
2013-06-21 11:50:00,90.1,75.8,30.09,North,0,0.0,1.4,63,0.00,BKN,,0.00,WeatherDisplay:10.37,2013-06-21 15:50:00,
2013-06-21 11:55:00,91.0,76.2,30.09,NE,45,0.0,2.3,62,0.00,BKN,,0.00,WeatherDisplay:10.37,2013-06-21 15:55:00,
2013-06-21 12:00:00,90.1,76.3,30.08,NE,45,0.0,2.3,64,0.00,BKN,,0.00,WeatherDisplay:10.37,2013-06-21 16:00:00,
2013-06-21 12:05:00,90.7,76.8,30.08,East,90,3.9,3.9,64,0.00,BKN,,0.00,WeatherDisplay:10.37,2013-06-21 16:05:00,
2013-06-21 12:11:00,90.1,76.8,30.08,SE,135,0.1,4.6,65,0.00,BKN,,0.00,WeatherDisplay:10.37,2013-06-21 16:11:00,
2013-06-21 12:16:00,90.0,77.5,30.08,SE,135,2.8,2.8,67,0.00,BKN,,0.00,WeatherDisplay:10.37,2013-06-21 16:16:00,
2013-06-21 12:21:00,88.9,76.9,30.08,NE,45,4.0,4.0,68,0.00,BKN,,0.00,WeatherDisplay:10.37,2013-06-21 16:21:00,
2013-06-21 12:26:00,86.7,75.8,30.08,NE,45,0.2,4.6,70,0.00,BKN,,0.00,WeatherDisplay:10.37,2013-06-21 16:26:00,
2013-06-21 12:31:00,86.7,76.2,30.09,NE,45,0.1,4.6,71,0.00,BKN,,0.00,WeatherDisplay:10.37,2013-06-21 16:31:00,
2013-06-21 12:36:00,86.2,76.1,30.09,North,0,5.2,11.2,72,0.00,BKN,,0.00,WeatherDisplay:10.37,2013-06-21 16:36:00,
2013-06-21 12:41:00,83.3,74.1,30.09,East,90,0.0,12.7,74,0.00,BKN,,0.00,WeatherDisplay:10.37,2013-06-21 16:41:00,
2013-06-21 12:46:00,81.5,73.6,30.09,North,0,5.6,5.6,77,0.00,BKN,,0.00,WeatherDisplay:10.37,2013-06-21 16:46:00,
2013-06-21 12:52:00,80.2,73.5,30.09,NE,45,3.7,5.8,80,0.00,BKN,,0.00,WeatherDisplay:10.37,2013-06-21 16:52:00,
2013-06-21 12:57:00,80.1,74.1,30.09,NE,45,0.0,4.6,82,0.00,BKN,,0.00,WeatherDisplay:10.37,2013-06-21 16:57:00,
2013-06-21 13:02:00,78.1,72.8,30.09,South,180,0.0,0.0,84,0.00,BKN,,0.00,WeatherDisplay:10.37,2013-06-21 17:02:00,
2013-06-21 13:07:00,77.9,73.7,30.08,South,180,0.0,0.0,87,0.00,BKN,,0.00,WeatherDisplay:10.37,2013-06-21 17:07:00,
2013-06-21 13:12:00,77.4,73.5,30.08,South,180,0.0,0.0,88,0.02,RA,,0.02,WeatherDisplay:10.37,2013-06-21 17:12:00,
2013-06-21 13:18:00,77.4,73.5,30.07,South,180,0.0,0.0,88,0.02,RA,,0.02,WeatherDisplay:10.37,2013-06-21 17:18:00,
2013-06-21 13:23:00,77.4,73.5,30.07,South,180,0.0,2.3,88,0.02,RA,,0.02,WeatherDisplay:10.37,2013-06-21 17:23:00,
2013-06-21 13:28:00,77.4,73.5,30.07,South,180,0.0,0.0,88,0.02,RA,,0.02,WeatherDisplay:10.37,2013-06-21 17:28:00,
2013-06-21 13:33:00,77.4,73.5,30.07,South,180,0.3,2.8,88,0.02,RA,,0.02,WeatherDisplay:10.37,2013-06-21 17:33:00,
2013-06-21 13:38:00,77.4,73.5,30.07,South,180,0.0,0.0,88,0.02,RA,,0.02,WeatherDisplay:10.37,2013-06-21 17:38:00,
2013-06-21 13:43:00,77.4,73.5,30.07,South,180,0.0,1.4,88,0.02,BKN,,0.02,WeatherDisplay:10.37,2013-06-21 17:43:00,
2013-06-21 13:46:00,77.4,73.5,30.07,South,180,0.0,2.3,88,0.02,BKN,,0.02,WeatherDisplay:10.37,2013-06-21 17:46:00,
2013-06-21 13:47:00,77.4,73.5,30.07,South,180,0.0,0.0,88,0.02,BKN,,0.02,WeatherDisplay:10.37,2013-06-21 17:47:00,
2013-06-21 13:52:00,77.4,73.5,30.07,South,180,0.0,0.0,88,0.02,BKN,,0.02,WeatherDisplay:10.37,2013-06-21 17:52:00,
2013-06-21 13:57:00,77.4,73.5,30.07,South,180,0.0,0.0,88,0.02,BKN,,0.02,WeatherDisplay:10.37,2013-06-21 17:57:00,
2013-06-21 14:02:00,77.4,73.5,30.07,South,180,0.0,0.0,88,0.02,BKN,,0.02,WeatherDisplay:10.37,2013-06-21 18:02:00,
2013-06-21 14:07:00,77.4,73.5,30.07,South,180,0.0,0.0,88,0.02,BKN,,0.02,WeatherDisplay:10.37,2013-06-21 18:07:00,
2013-06-21 14:13:00,77.4,73.5,30.07,South,180,0.0,0.0,88,0.02,BKN,,0.02,WeatherDisplay:10.37,2013-06-21 18:13:00,
2013-06-21 14:18:00,77.4,73.5,30.07,South,180,0.0,0.0,88,0.02,BKN,,0.02,WeatherDisplay:10.37,2013-06-21 18:18:00,
2013-06-21 14:23:00,77.4,73.5,30.07,South,180,0.0,0.0,88,0.02,BKN,,0.02,WeatherDisplay:10.37,2013-06-21 18:23:00,
2013-06-21 14:24:00,77.4,73.5,30.07,South,180,0.0,0.0,88,0.02,BKN,,0.02,WeatherDisplay:10.37,2013-06-21 18:24:00,
2013-06-21 14:29:00,77.4,73.5,30.07,South,180,0.0,0.0,88,0.02,BKN,,0.02,WeatherDisplay:10.37,2013-06-21 18:29:00,
2013-06-21 14:34:00,77.4,73.5,30.07,South,180,0.0,0.0,88,0.02,BKN,,0.02,WeatherDisplay:10.37,2013-06-21 18:34:00,
2013-06-21 14:39:00,77.4,73.5,30.07,South,180,0.0,0.0,88,0.02,BKN,,0.02,WeatherDisplay:10.37,2013-06-21 18:39:00,
2013-06-21 14:44:00,79.0,74.8,30.07,NE,45,0.0,0.0,87,0.02,BKN,,0.02,WeatherDisplay:10.37,2013-06-21 18:44:00,
2013-06-21 14:45:00,79.0,74.8,30.07,NE,45,0.0,0.0,87,0.02,BKN,,0.02,WeatherDisplay:10.37,2013-06-21 18:45:00,
2013-06-21 14:46:00,79.0,74.8,30.07,NE,45,0.0,0.0,87,0.02,BKN,,0.02,WeatherDisplay:10.37,2013-06-21 18:46:00,
2013-06-21 14:51:00,79.0,74.4,30.07,NE,45,0.0,0.0,86,0.02,BKN,,0.02,WeatherDisplay:10.37,2013-06-21 18:51:00,
2013-06-21 14:56:00,79.7,75.1,30.07,NE,45,0.0,0.0,86,0.02,BKN,,0.02,WeatherDisplay:10.37,2013-06-21 18:56:00,
2013-06-21 15:01:00,79.9,75.7,30.06,NE,45,0.0,0.0,87,0.02,BKN,,0.02,WeatherDisplay:10.37,2013-06-21 19:01:00,
2013-06-21 15:06:00,80.2,76.0,30.06,NE,45,0.0,0.0,87,0.02,BKN,,0.02,WeatherDisplay:10.37,2013-06-21 19:06:00,
2013-06-21 15:12:00,80.4,76.2,30.06,NE,45,0.0,0.0,87,0.02,BKN,,0.02,WeatherDisplay:10.37,2013-06-21 19:12:00,
2013-06-21 15:18:00,80.4,76.2,30.06,NE,45,0.0,0.0,87,0.02,BKN,,0.02,WeatherDisplay:10.37,2013-06-21 19:18:00,
2013-06-21 15:20:00,80.4,75.5,30.06,East,90,0.0,0.0,85,0.02,BKN,,0.02,WeatherDisplay:10.37,2013-06-21 19:20:00,
2013-06-21 15:25:00,81.5,75.8,30.05,East,90,0.0,0.0,83,0.02,BKN,,0.02,WeatherDisplay:10.37,2013-06-21 19:25:00,
2013-06-21 15:30:00,82.9,76.5,30.06,NE,45,0.0,0.0,81,0.02,BKN,,0.02,WeatherDisplay:10.37,2013-06-21 19:30:00,
2013-06-21 15:35:00,83.5,77.0,30.05,NE,45,0.1,1.4,81,0.02,BKN,,0.02,WeatherDisplay:10.37,2013-06-21 19:35:00,
2013-06-21 15:40:00,83.5,76.3,30.06,NE,45,0.0,4.6,79,0.02,BKN,,0.02,WeatherDisplay:10.37,2013-06-21 19:40:00,
2013-06-21 15:42:00,83.5,76.3,30.06,NE,45,0.0,4.6,79,0.02,BKN,,0.02,WeatherDisplay:10.37,2013-06-21 19:42:00,
2013-06-21 15:43:00,83.5,76.3,30.06,NE,45,0.0,4.6,79,0.02,BKN,,0.02,WeatherDisplay:10.37,2013-06-21 19:43:00,
2013-06-21 15:48:00,84.6,77.3,30.06,NE,45,1.0,4.6,79,0.04,RA,,0.04,WeatherDisplay:10.37,2013-06-21 19:48:00,
2013-06-21 15:53:00,84.9,76.1,30.05,East,90,7.8,7.8,75,0.04,RA,,0.04,WeatherDisplay:10.37,2013-06-21 19:53:00,
2013-06-21 15:58:00,84.9,76.5,30.05,NE,45,0.1,8.1,76,0.04,RA,,0.04,WeatherDisplay:10.37,2013-06-21 19:58:00,
2013-06-21 16:03:00,84.7,76.3,30.05,NE,45,2.0,4.2,76,0.04,RA,,0.04,WeatherDisplay:10.37,2013-06-21 20:03:00,
2013-06-21 16:04:00,84.7,76.3,30.05,NE,45,2.0,4.2,76,0.04,RA,,0.04,WeatherDisplay:10.37,2013-06-21 20:04:00,
2013-06-21 16:09:00,85.3,76.5,30.05,NE,45,3.5,3.5,75,0.04,RA,,0.04,WeatherDisplay:10.37,2013-06-21 20:09:00,
2013-06-21 16:11:00,85.6,76.0,30.05,NE,45,0.2,4.6,73,0.02,RA,,0.04,WeatherDisplay:10.37,2013-06-21 20:11:00,
2013-06-21 16:14:00,85.8,76.2,30.05,NE,45,3.8,3.8,73,0.02,BKN,,0.04,WeatherDisplay:10.37,2013-06-21 20:14:00,
2013-06-21 16:19:00,86.4,75.8,30.06,NE,45,3.8,4.6,71,0.02,BKN,,0.04,WeatherDisplay:10.37,2013-06-21 20:19:00,
2013-06-21 16:24:00,85.8,75.7,30.06,North,0,7.6,7.6,72,0.02,BKN,,0.04,WeatherDisplay:10.37,2013-06-21 20:24:00,
2013-06-21 16:29:00,84.9,74.9,30.06,NE,45,2.1,2.8,72,0.02,BKN,,0.04,WeatherDisplay:10.37,2013-06-21 20:29:00,
2013-06-21 16:34:00,83.5,74.7,30.06,NE,45,5.5,5.5,75,0.02,BKN,,0.04,WeatherDisplay:10.37,2013-06-21 20:34:00,
2013-06-21 16:39:00,82.9,74.6,30.06,NW,315,3.9,5.8,76,0.02,BKN,,0.04,WeatherDisplay:10.37,2013-06-21 20:39:00,
2013-06-21 16:47:00,81.3,73.8,30.05,SW,225,3.7,3.7,78,0.02,BKN,,0.04,WeatherDisplay:10.37,2013-06-21 20:47:00,
2013-06-21 16:52:00,79.3,73.0,30.05,North,0,2.0,2.1,81,0.02,BKN,,0.04,WeatherDisplay:10.37,2013-06-21 20:52:00,
2013-06-21 16:57:00,79.3,73.0,30.05,North,0,0.0,2.3,81,0.02,BKN,,0.04,WeatherDisplay:10.37,2013-06-21 20:57:00,
2013-06-21 17:02:00,79.0,73.0,30.05,North,0,0.0,0.0,82,0.02,BKN,,0.04,WeatherDisplay:10.37,2013-06-21 21:02:00,
2013-06-21 17:04:00,79.0,73.0,30.05,North,0,0.0,0.0,82,0.02,BKN,,0.04,WeatherDisplay:10.37,2013-06-21 21:04:00,
2013-06-21 17:09:00,79.0,73.4,30.04,NW,315,0.0,2.3,83,0.02,BKN,,0.04,WeatherDisplay:10.37,2013-06-21 21:09:00,
2013-06-21 17:14:00,79.3,73.7,30.04,NW,315,0.0,0.0,83,0.02,BKN,,0.04,WeatherDisplay:10.37,2013-06-21 21:14:00,
2013-06-21 17:19:00,79.3,73.7,30.05,NW,315,0.0,1.4,83,0.02,BKN,,0.04,WeatherDisplay:10.37,2013-06-21 21:19:00,
2013-06-21 17:24:00,79.7,73.7,30.05,North,0,0.0,2.3,82,0.02,BKN,,0.04,WeatherDisplay:10.37,2013-06-21 21:24:00,
2013-06-21 17:29:00,79.9,73.9,30.05,NE,45,0.1,2.8,82,0.02,-RA,,0.04,WeatherDisplay:10.37,2013-06-21 21:29:00,
2013-06-21 17:34:00,79.9,74.6,30.05,NE,45,0.0,0.0,84,0.02,-RA,,0.04,WeatherDisplay:10.37,2013-06-21 21:34:00,
2013-06-21 17:39:00,80.1,74.8,30.05,NE,45,0.0,0.0,84,0.02,-RA,,0.04,WeatherDisplay:10.37,2013-06-21 21:39:00,
2013-06-21 17:44:00,80.2,75.0,30.05,NE,45,0.0,0.0,84,0.02,-RA,,0.04,WeatherDisplay:10.37,2013-06-21 21:44:00,
2013-06-21 17:49:00,79.9,74.6,30.05,NE,45,0.0,0.0,84,0.02,-RA,,0.04,WeatherDisplay:10.37,2013-06-21 21:49:00,
2013-06-21 17:54:00,79.5,74.6,30.05,NE,45,0.0,0.0,85,0.02,-RA,,0.04,WeatherDisplay:10.37,2013-06-21 21:54:00,
2013-06-21 17:59:00,79.5,75.0,30.05,NE,45,0.0,0.0,86,0.02,-RA,,0.04,WeatherDisplay:10.37,2013-06-21 21:59:00,
2013-06-21 18:04:00,79.3,74.8,30.06,NE,45,0.0,0.0,86,0.02,-RA,,0.04,WeatherDisplay:10.37,2013-06-21 22:04:00,
2013-06-21 18:09:00,79.3,74.8,30.07,NE,45,0.0,0.0,86,0.02,-RA,,0.04,WeatherDisplay:10.37,2013-06-21 22:09:00,
2013-06-21 18:15:00,79.0,74.8,30.07,NE,45,0.0,0.0,87,0.02,-RA,,0.04,WeatherDisplay:10.37,2013-06-21 22:15:00,
2013-06-21 18:20:00,79.2,75.0,30.07,NE,45,0.0,0.0,87,0.02,-RA,,0.04,WeatherDisplay:10.37,2013-06-21 22:20:00,
2013-06-21 18:25:00,79.0,75.1,30.07,NE,45,0.0,0.0,88,0.02,BKN,,0.04,WeatherDisplay:10.37,2013-06-21 22:25:00,
2013-06-21 18:30:00,78.6,74.8,30.07,NE,45,0.0,0.0,88,0.02,BKN,,0.04,WeatherDisplay:10.37,2013-06-21 22:30:00,
2013-06-21 18:35:00,78.3,74.4,30.07,NE,45,0.0,0.0,88,0.02,BKN,,0.04,WeatherDisplay:10.37,2013-06-21 22:35:00,
2013-06-21 18:40:00,77.7,73.9,30.07,NE,45,0.0,0.0,88,0.02,BKN,,0.04,WeatherDisplay:10.37,2013-06-21 22:40:00,
2013-06-21 18:45:00,77.5,73.7,30.07,NE,45,0.0,0.0,88,0.00,BKN,,0.04,WeatherDisplay:10.37,2013-06-21 22:45:00,
2013-06-21 18:50:00,76.8,73.7,30.07,NE,45,0.0,0.0,90,0.00,BKN,,0.04,WeatherDisplay:10.37,2013-06-21 22:50:00,
2013-06-21 18:55:00,76.6,73.5,30.07,NE,45,0.0,0.0,90,0.00,BKN,,0.04,WeatherDisplay:10.37,2013-06-21 22:55:00,
2013-06-21 19:00:00,76.6,73.5,30.07,NE,45,0.0,0.0,90,0.00,BKN,,0.04,WeatherDisplay:10.37,2013-06-21 23:00:00,
2013-06-21 19:05:00,76.6,73.5,30.07,NE,45,0.0,0.0,90,0.00,BKN,,0.04,WeatherDisplay:10.37,2013-06-21 23:05:00,
2013-06-21 19:10:00,76.6,73.5,30.07,NE,45,0.0,0.0,90,0.00,BKN,,0.04,WeatherDisplay:10.37,2013-06-21 23:10:00,
2013-06-21 19:15:00,76.6,73.5,30.07,NE,45,0.0,0.0,90,0.00,BKN,,0.04,WeatherDisplay:10.37,2013-06-21 23:15:00,
2013-06-21 19:20:00,76.6,73.5,30.07,NE,45,0.0,0.0,90,0.00,BKN,,0.04,WeatherDisplay:10.37,2013-06-21 23:20:00,
2013-06-21 19:25:00,76.6,73.5,30.07,NE,45,0.0,0.0,90,0.00,BKN,,0.04,WeatherDisplay:10.37,2013-06-21 23:25:00,
2013-06-21 19:31:00,76.6,73.5,30.07,NE,45,0.0,0.0,90,0.00,BKN,,0.04,WeatherDisplay:10.37,2013-06-21 23:31:00,
2013-06-21 19:36:00,75.6,73.1,30.09,NE,45,0.0,0.0,92,0.00,BKN,,0.04,WeatherDisplay:10.37,2013-06-21 23:36:00,
2013-06-21 19:41:00,75.4,72.9,30.09,NE,45,0.0,0.0,92,0.00,BKN,,0.04,WeatherDisplay:10.37,2013-06-21 23:41:00,
2013-06-21 19:46:00,75.4,72.6,30.09,NE,45,0.0,0.0,91,0.00,BKN,,0.04,WeatherDisplay:10.37,2013-06-21 23:46:00,
2013-06-21 19:51:00,75.2,72.4,30.09,NE,45,0.0,0.0,91,0.00,BKN,,0.04,WeatherDisplay:10.37,2013-06-21 23:51:00,
2013-06-21 19:56:00,75.0,72.2,30.08,NE,45,0.0,0.0,91,0.00,BKN,,0.04,WeatherDisplay:10.37,2013-06-21 23:56:00,
2013-06-21 20:01:00,74.8,72.0,30.08,NE,45,0.0,0.0,91,0.00,BKN,,0.04,WeatherDisplay:10.37,2013-06-22 00:01:00,
2013-06-21 20:06:00,74.8,72.0,30.08,NE,45,0.0,0.0,91,0.00,BKN,,0.04,WeatherDisplay:10.37,2013-06-22 00:06:00,
2013-06-21 20:11:00,74.7,71.5,30.08,NE,45,0.0,0.0,90,0.00,BKN,,0.04,WeatherDisplay:10.37,2013-06-22 00:11:00,
2013-06-21 20:16:00,74.7,71.5,30.08,NE,45,0.0,0.0,90,0.00,BKN,,0.04,WeatherDisplay:10.37,2013-06-22 00:16:00,
2013-06-21 20:21:00,74.7,71.5,30.08,NE,45,0.0,0.0,90,0.00,BKN,,0.04,WeatherDisplay:10.37,2013-06-22 00:21:00,
2013-06-21 20:26:00,74.7,71.5,30.08,NE,45,0.0,0.0,90,0.00,BKN,,0.04,WeatherDisplay:10.37,2013-06-22 00:26:00,
2013-06-21 20:31:00,74.7,71.5,30.08,NE,45,0.0,0.0,90,0.00,BKN,,0.04,WeatherDisplay:10.37,2013-06-22 00:31:00,
2013-06-21 20:36:00,74.7,71.5,30.08,NE,45,0.0,0.0,90,0.00,BKN,,0.04,WeatherDisplay:10.37,2013-06-22 00:36:00,
2013-06-21 20:41:00,74.7,71.5,30.08,NE,45,0.0,0.0,90,0.00,BKN,,0.04,WeatherDisplay:10.37,2013-06-22 00:41:00,
2013-06-21 20:46:00,74.7,71.5,30.08,NE,45,0.0,1.2,90,0.00,BKN,,0.04,WeatherDisplay:10.37,2013-06-22 00:46:00,
2013-06-21 20:51:00,73.6,71.1,30.08,North,0,0.0,0.0,92,0.00,BKN,,0.04,WeatherDisplay:10.37,2013-06-22 00:51:00,
2013-06-21 20:56:00,73.6,71.1,30.08,North,0,0.0,0.0,92,0.00,BKN,,0.04,WeatherDisplay:10.37,2013-06-22 00:56:00,
2013-06-21 21:02:00,73.2,70.8,30.08,North,0,0.0,0.0,92,0.00,BKN,,0.04,WeatherDisplay:10.37,2013-06-22 01:02:00,
2013-06-21 21:07:00,73.0,70.9,30.07,North,0,0.0,0.0,93,0.00,BKN,,0.04,WeatherDisplay:10.37,2013-06-22 01:07:00,
2013-06-21 21:12:00,72.9,70.7,30.07,North,0,0.0,0.0,93,0.00,BKN,,0.04,WeatherDisplay:10.37,2013-06-22 01:12:00,
2013-06-21 21:17:00,72.7,70.9,30.07,North,0,0.0,0.0,94,0.00,BKN,,0.04,WeatherDisplay:10.37,2013-06-22 01:17:00,
2013-06-21 21:22:00,72.7,70.9,30.07,North,0,0.0,0.0,94,0.00,BKN,,0.04,WeatherDisplay:10.37,2013-06-22 01:22:00,
2013-06-21 21:27:00,72.5,70.7,30.07,North,0,0.0,0.0,94,0.00,-RA,,0.04,WeatherDisplay:10.37,2013-06-22 01:27:00,
2013-06-21 21:32:00,72.5,70.7,30.07,North,0,0.0,0.0,94,0.00,-RA,,0.04,WeatherDisplay:10.37,2013-06-22 01:32:00,
2013-06-21 21:37:00,72.1,70.3,30.07,North,0,0.0,0.0,94,0.00,-RA,,0.04,WeatherDisplay:10.37,2013-06-22 01:37:00,
2013-06-21 21:42:00,72.0,70.1,30.07,North,0,0.0,0.0,94,0.00,-RA,,0.04,WeatherDisplay:10.37,2013-06-22 01:42:00,
2013-06-21 21:47:00,71.8,70.0,30.06,North,0,0.0,0.0,94,0.00,-RA,,0.04,WeatherDisplay:10.37,2013-06-22 01:47:00,
2013-06-21 21:52:00,71.8,70.0,30.07,North,0,0.0,0.0,94,0.00,-RA,,0.04,WeatherDisplay:10.37,2013-06-22 01:52:00,
2013-06-21 21:57:00,71.8,70.0,30.07,North,0,0.0,0.0,94,0.00,-RA,,0.04,WeatherDisplay:10.37,2013-06-22 01:57:00,
2013-06-21 22:02:00,71.8,70.0,30.07,North,0,0.0,0.0,94,0.00,-RA,,0.04,WeatherDisplay:10.37,2013-06-22 02:02:00,
2013-06-21 22:07:00,71.6,70.1,30.07,North,0,0.0,0.0,95,0.00,-RA,,0.04,WeatherDisplay:10.37,2013-06-22 02:07:00,
2013-06-21 22:12:00,71.6,70.1,30.07,North,0,0.0,0.0,95,0.00,-RA,,0.04,WeatherDisplay:10.37,2013-06-22 02:12:00,
2013-06-21 22:17:00,71.8,70.3,30.07,North,0,0.0,0.0,95,0.00,-RA,,0.04,WeatherDisplay:10.37,2013-06-22 02:17:00,
2013-06-21 22:23:00,71.8,70.3,30.08,North,0,0.0,0.0,95,0.02,-RA,,0.06,WeatherDisplay:10.37,2013-06-22 02:23:00,
2013-06-21 22:28:00,71.8,70.3,30.08,North,0,0.0,0.0,95,0.02,-RA,,0.06,WeatherDisplay:10.37,2013-06-22 02:28:00,
2013-06-21 22:33:00,72.1,70.6,30.08,North,0,0.0,0.0,95,0.02,-RA,,0.06,WeatherDisplay:10.37,2013-06-22 02:33:00,
2013-06-21 22:38:00,72.1,70.9,30.08,North,0,0.0,0.0,96,0.02,-RA,,0.06,WeatherDisplay:10.37,2013-06-22 02:38:00,
2013-06-21 22:43:00,72.1,70.9,30.08,North,0,0.0,0.0,96,0.02,-RA,,0.06,WeatherDisplay:10.37,2013-06-22 02:43:00,
2013-06-21 22:48:00,72.1,70.9,30.08,North,0,0.0,0.0,96,0.02,-RA,,0.06,WeatherDisplay:10.37,2013-06-22 02:48:00,
2013-06-21 22:53:00,72.1,70.9,30.08,North,0,0.0,0.0,96,0.02,-RA,,0.06,WeatherDisplay:10.37,2013-06-22 02:53:00,
2013-06-21 22:58:00,72.1,70.9,30.08,North,0,0.0,0.0,96,0.02,-RA,,0.06,WeatherDisplay:10.37,2013-06-22 02:58:00,
2013-06-21 23:03:00,72.1,70.9,30.08,North,0,0.0,0.0,96,0.02,-RA,,0.06,WeatherDisplay:10.37,2013-06-22 03:03:00,
2013-06-21 23:08:00,72.0,70.8,30.08,North,0,0.0,0.0,96,0.02,-RA,,0.06,WeatherDisplay:10.37,2013-06-22 03:08:00,
2013-06-21 23:13:00,72.1,70.9,30.08,North,0,0.0,0.0,96,0.02,-RA,,0.06,WeatherDisplay:10.37,2013-06-22 03:13:00,
2013-06-21 23:18:00,72.1,70.9,30.08,North,0,0.0,0.0,96,0.02,-RA,,0.06,WeatherDisplay:10.37,2013-06-22 03:18:00,
2013-06-21 23:23:00,72.0,70.8,30.08,North,0,0.0,0.0,96,0.02,OVC,,0.06,WeatherDisplay:10.37,2013-06-22 03:23:00,
2013-06-21 23:28:00,72.0,70.8,30.08,North,0,0.0,0.0,96,0.02,OVC,,0.06,WeatherDisplay:10.37,2013-06-22 03:28:00,
2013-06-21 23:33:00,72.0,70.8,30.07,North,0,0.0,0.0,96,0.02,OVC,,0.06,WeatherDisplay:10.37,2013-06-22 03:33:00,
2013-06-21 23:38:00,72.0,70.8,30.07,North,0,0.0,0.0,96,0.02,OVC,,0.06,WeatherDisplay:10.37,2013-06-22 03:38:00,
2013-06-21 23:43:00,72.0,70.8,30.07,North,0,0.0,0.0,96,0.02,OVC,,0.06,WeatherDisplay:10.37,2013-06-22 03:43:00,
2013-06-21 23:48:00,71.8,70.6,30.07,North,0,0.0,0.0,96,0.02,OVC,,0.06,WeatherDisplay:10.37,2013-06-22 03:48:00,
2013-06-21 23:54:00,71.8,70.6,30.07,North,0,0.0,0.0,96,0.02,OVC,,0.06,WeatherDisplay:10.37,2013-06-22 03:54:00,
2013-06-21 23:59:00,71.8,70.6,30.06,North,0,0.0,0.0,96,0.02,OVC,,0.06,WeatherDisplay:10.37,2013-06-22 03:59:00,